Location: Camerons Lookout
(40.9833°S, 175.9333°E)
Time: 01:04:38
(UTC+00:00)

CZ-4B R/B - Pass Details

Date: 14 January 2026
Orbit: 444 x 565 km, 97.8° (Epoch: 6 February)

Event Time Altitude Azimuth Distance (km) Brightness Sun altitude
Rises 09:28:35 0° 156° (SSE) 2,758 6.7 -15.5°
Reaches altitude 10° 09:31:02 10° 143° (SE) 1,836 5.6 -15.8°
Maximum altitude 09:34:25 27° 85° (E) 1,064 3.9 -16.2°
Enters shadow 09:34:40 26° 78° (ENE) 1,067 3.8 -16.2°
